owner,sensor,date,latitude,longitude,sea_surface_height_above_sea_level,qcFlag 
COMPS,ioos:station:USF.COMPS:FHP:1,2013-05-01T15:00:00Z,28.1530,-82.8010,0.129,1111122 
COMPS,ioos:station:USF.COMPS:FHP:1,2013-05-01T15:06:00Z,28.1530,-82.8010,0.136,1111122 
COMPS,ioos:station:USF.COMPS:FHP:1,2013-05-01T15:12:00Z,28.1530,-82.8010,0.146,1111122 
COMPS,ioos:station:USF.COMPS:FHP:1,2013-05-01T15:18:00Z,28.1530,-82.8010,0.16,1111122 
COMPS,ioos:station:USF.COMPS:FHP:1,2013-05-01T15:24:00Z,28.1530,-82.8010,0.15,1111122 
COMPS,ioos:station:USF.COMPS:FHP:1,2013-05-01T15:30:00Z,28.1530,-82.8010,0.166,1111122 
COMPS,ioos:station:USF.COMPS:FHP:1,2013-05-01T15:36:00Z,28.1530,-82.8010,0.143,1111122 
COMPS,ioos:station:USF.COMPS:FHP:1,2013-05-01T15:42:00Z,28.1530,-82.8010,0.15,1111122 
COMPS,ioos:station:USF.COMPS:FHP:1,2013-05-01T15:48:00Z,28.1530,-82.8010,0.143,1111122 
COMPS,ioos:station:USF.COMPS:FHP:1,2013-05-01T15:54:00Z,28.1530,-82.8010,0.148,1111122 
COMPS,ioos:station:USF.COMPS:FHP:1,2013-05-01T16:00:00Z,28.1530,-82.8010,0.146,1111122 
COMPS,ioos:station:USF.COMPS:FHP:1,2013-05-01T16:06:00Z,28.1530,-82.8010,0.149,1111122 
COMPS,ioos:station:USF.COMPS:FHP:1,2013-05-01T16:18:00Z,28.1530,-82.8010,0.165,1111122 
COMPS,ioos:station:USF.COMPS:FHP:1,2013-05-01T16:24:00Z,28.1530,-82.8010,0.163,1111122 
COMPS,ioos:station:USF.COMPS:FHP:1,2013-05-01T16:30:00Z,28.1530,-82.8010,0.171,1111122 
COMPS,ioos:station:USF.COMPS:FHP:1,2013-05-01T16:36:00Z,28.1530,-82.8010,0.167,1111122 
COMPS,ioos:station:USF.COMPS:FHP:1,2013-05-01T16:42:00Z,28.1530,-82.8010,0.18,1111122 
COMPS,ioos:station:USF.COMPS:FHP:1,2013-05-01T16:48:00Z,28.1530,-82.8010,0.186,1111122 
COMPS,ioos:station:USF.COMPS:FHP:1,2013-05-01T16:54:00Z,28.1530,-82.8010,0.2,1111122 
COMPS,ioos:station:USF.COMPS:FHP:1,2013-05-01T17:00:00Z,28.1530,-82.8010,0.203,1111122 
COMPS,ioos:station:USF.COMPS:FHP:1,2013-05-01T17:06:00Z,28.1530,-82.8010,0.207,1111122 
COMPS,ioos:station:USF.COMPS:FHP:1,2013-05-01T17:12:00Z,28.1530,-82.8010,0.217,1111122 
COMPS,ioos:station:USF.COMPS:FHP:1,2013-05-01T17:18:00Z,28.1530,-82.8010,0.23,1111122 
COMPS,ioos:station:USF.COMPS:FHP:1,2013-05-01T17:24:00Z,28.1530,-82.8010,0.241,1111122 
COMPS,ioos:station:USF.COMPS:FHP:1,2013-05-01T17:30:00Z,28.1530,-82.8010,0.262,1111122 
COMPS,ioos:station:USF.COMPS:FHP:1,2013-05-01T17:36:00Z,28.1530,-82.8010,0.262,1111122 
COMPS,ioos:station:USF.COMPS:FHP:1,2013-05-01T17:42:00Z,28.1530,-82.8010,0.283,1111122 
COMPS,ioos:station:USF.COMPS:FHP:1,2013-05-01T17:48:00Z,28.1530,-82.8010,0.295,1111122 
COMPS,ioos:station:USF.COMPS:FHP:1,2013-05-01T17:54:00Z,28.1530,-82.8010,0.308,1111122 
COMPS,ioos:station:USF.COMPS:FHP:1,2013-05-01T18:06:00Z,28.1530,-82.8010,0.344,1111122 
COMPS,ioos:station:USF.COMPS:FHP:1,2013-05-01T18:12:00Z,28.1530,-82.8010,0.357,1111122 
COMPS,ioos:station:USF.COMPS:FHP:1,2013-05-01T18:18:00Z,28.1530,-82.8010,0.36,1111122 
COMPS,ioos:station:USF.COMPS:FHP:1,2013-05-01T18:24:00Z,28.1530,-82.8010,0.371,1111122 
COMPS,ioos:station:USF.COMPS:FHP:1,2013-05-01T18:30:00Z,28.1530,-82.8010,0.371,1111122 
COMPS,ioos:station:USF.COMPS:FHP:1,2013-05-01T18:36:00Z,28.1530,-82.8010,0.392,1111122 
COMPS,ioos:station:USF.COMPS:FHP:1,2013-05-01T18:42:00Z,28.1530,-82.8010,0.406,1111122 
COMPS,ioos:station:USF.COMPS:FHP:1,2013-05-01T18:48:00Z,28.1530,-82.8010,0.434,1111122 
COMPS,ioos:station:USF.COMPS:FHP:1,2013-05-01T18:54:00Z,28.1530,-82.8010,0.448,1111122 
COMPS,ioos:station:USF.COMPS:FHP:1,2013-05-01T19:00:00Z,28.1530,-82.8010,0.456,1111122 
COMPS,ioos:station:USF.COMPS:FHP:1,2013-05-01T19:06:00Z,28.1530,-82.8010,0.474,1111122 
COMPS,ioos:station:USF.COMPS:FHP:1,2013-05-01T19:12:00Z,28.1530,-82.8010,0.473,1111122 
COMPS,ioos:station:USF.COMPS:FHP:1,2013-05-01T19:18:00Z,28.1530,-82.8010,0.481,1111122 
COMPS,ioos:station:USF.COMPS:FHP:1,2013-05-01T19:24:00Z,28.1530,-82.8010,0.489,1111122 
COMPS,ioos:station:USF.COMPS:FHP:1,2013-05-01T19:30:00Z,28.1530,-82.8010,0.504,1111122 
COMPS,ioos:station:USF.COMPS:FHP:1,2013-05-01T19:36:00Z,28.1530,-82.8010,0.505,1111122 
COMPS,ioos:station:USF.COMPS:FHP:1,2013-05-01T19:42:00Z,28.1530,-82.8010,0.513,1111122 
COMPS,ioos:station:USF.COMPS:FHP:1,2013-05-01T19:48:00Z,28.1530,-82.8010,0.538,1111122 
COMPS,ioos:station:USF.COMPS:FHP:1,2013-05-01T19:54:00Z,28.1530,-82.8010,0.549,1111122 
COMPS,ioos:station:USF.COMPS:FHP:1,2013-05-01T20:00:00Z,28.1530,-82.8010,0.564,1111122 
COMPS,ioos:station:USF.COMPS:FHP:1,2013-05-01T20:06:00Z,28.1530,-82.8010,0.578,1111122 
COMPS,ioos:station:USF.COMPS:FHP:1,2013-05-01T20:12:00Z,28.1530,-82.8010,0.588,1111122 
COMPS,ioos:station:USF.COMPS:FHP:1,2013-05-01T20:18:00Z,28.1530,-82.8010,0.588,1111122 
COMPS,ioos:station:USF.COMPS:FHP:1,2013-05-01T20:24:00Z,28.1530,-82.8010,0.569,1111122 
COMPS,ioos:station:USF.COMPS:FHP:1,2013-05-01T20:30:00Z,28.1530,-82.8010,0.542,1111122 
COMPS,ioos:station:USF.COMPS:FHP:1,2013-05-01T20:36:00Z,28.1530,-82.8010,0.535,1111122 
COMPS,ioos:station:USF.COMPS:FHP:1,2013-05-01T20:42:00Z,28.1530,-82.8010,0.529,1111122 
COMPS,ioos:station:USF.COMPS:FHP:1,2013-05-01T20:48:00Z,28.1530,-82.8010,0.52,1111122 
COMPS,ioos:station:USF.COMPS:FHP:1,2013-05-01T20:54:00Z,28.1530,-82.8010,0.506,1111122 
COMPS,ioos:station:USF.COMPS:FHP:1,2013-05-01T21:00:00Z,28.1530,-82.8010,0.511,1111122 
COMPS,ioos:station:USF.COMPS:FHP:1,2013-05-01T21:06:00Z,28.1530,-82.8010,0.496,1111122 
COMPS,ioos:station:USF.COMPS:FHP:1,2013-05-01T21:12:00Z,28.1530,-82.8010,0.503,1111122 
COMPS,ioos:station:USF.COMPS:FHP:1,2013-05-01T21:30:00Z,28.1530,-82.8010,0.512,1111122 
COMPS,ioos:station:USF.COMPS:FHP:1,2013-05-01T21:36:00Z,28.1530,-82.8010,0.515,1111122 
COMPS,ioos:station:USF.COMPS:FHP:1,2013-05-01T21:42:00Z,28.1530,-82.8010,0.497,1111122 
COMPS,ioos:station:USF.COMPS:FHP:1,2013-05-01T21:48:00Z,28.1530,-82.8010,0.5,1111122 
COMPS,ioos:station:USF.COMPS:FHP:1,2013-05-01T21:54:00Z,28.1530,-82.8010,0.482,1111122 
COMPS,ioos:station:USF.COMPS:FHP:1,2013-05-01T22:00:00Z,28.1530,-82.8010,0.471,1111122 
COMPS,ioos:station:USF.COMPS:FHP:1,2013-05-01T22:06:00Z,28.1530,-82.8010,0.444,1111122 
COMPS,ioos:station:USF.COMPS:FHP:1,2013-05-01T22:12:00Z,28.1530,-82.8010,0.424,1111122 
COMPS,ioos:station:USF.COMPS:FHP:1,2013-05-01T22:18:00Z,28.1530,-82.8010,0.421,1111122 
COMPS,ioos:station:USF.COMPS:FHP:1,2013-05-01T22:24:00Z,28.1530,-82.8010,0.416,1111122 
COMPS,ioos:station:USF.COMPS:FHP:1,2013-05-01T22:30:00Z,28.1530,-82.8010,0.408,1111122 
COMPS,ioos:station:USF.COMPS:FHP:1,2013-05-01T22:36:00Z,28.1530,-82.8010,0.387,1111122 
COMPS,ioos:station:USF.COMPS:FHP:1,2013-05-01T22:42:00Z,28.1530,-82.8010,0.381,1111122 
COMPS,ioos:station:USF.COMPS:FHP:1,2013-05-01T22:48:00Z,28.1530,-82.8010,0.36,1111122 
COMPS,ioos:station:USF.COMPS:FHP:1,2013-05-01T22:54:00Z,28.1530,-82.8010,0.338,1111122 
COMPS,ioos:station:USF.COMPS:FHP:1,2013-05-01T23:00:00Z,28.1530,-82.8010,0.332,1111122 
COMPS,ioos:station:USF.COMPS:FHP:1,2013-05-01T23:06:00Z,28.1530,-82.8010,0.326,1111122 
COMPS,ioos:station:USF.COMPS:FHP:1,2013-05-01T23:12:00Z,28.1530,-82.8010,0.353,1111122 
COMPS,ioos:station:USF.COMPS:FHP:1,2013-05-01T23:18:00Z,28.1530,-82.8010,0.328,1111122 
COMPS,ioos:station:USF.COMPS:FHP:1,2013-05-01T23:24:00Z,28.1530,-82.8010,0.319,1111122 
COMPS,ioos:station:USF.COMPS:FHP:1,2013-05-01T23:30:00Z,28.1530,-82.8010,0.307,1111122 
COMPS,ioos:station:USF.COMPS:FHP:1,2013-05-01T23:36:00Z,28.1530,-82.8010,0.299,1111122 
COMPS,ioos:station:USF.COMPS:FHP:1,2013-05-01T23:42:00Z,28.1530,-82.8010,0.281,1111122 
COMPS,ioos:station:USF.COMPS:FHP:1,2013-05-01T23:48:00Z,28.1530,-82.8010,0.265,1111122 
COMPS,ioos:station:USF.COMPS:FHP:1,2013-05-01T23:54:00Z,28.1530,-82.8010,0.268,1111122 
COMPS,ioos:station:USF.COMPS:FHP:1,2013-05-02T00:00:00Z,28.1530,-82.8010,0.27,1111122 
COMPS,ioos:station:USF.COMPS:FHP:1,2013-05-02T00:06:00Z,28.1530,-82.8010,0.246,1111122 
COMPS,ioos:station:USF.COMPS:FHP:1,2013-05-02T00:12:00Z,28.1530,-82.8010,0.24,1111122 
COMPS,ioos:station:USF.COMPS:FHP:1,2013-05-02T00:18:00Z,28.1530,-82.8010,0.199,1111122 
COMPS,ioos:station:USF.COMPS:FHP:1,2013-05-02T00:24:00Z,28.1530,-82.8010,0.172,1111122 
COMPS,ioos:station:USF.COMPS:FHP:1,2013-05-02T00:30:00Z,28.1530,-82.8010,0.143,1111122 
COMPS,ioos:station:USF.COMPS:FHP:1,2013-05-02T00:36:00Z,28.1530,-82.8010,0.109,1111122 
COMPS,ioos:station:USF.COMPS:FHP:1,2013-05-02T00:42:00Z,28.1530,-82.8010,0.092,1111122 
COMPS,ioos:station:USF.COMPS:FHP:1,2013-05-02T00:48:00Z,28.1530,-82.8010,0.071,1111122 
COMPS,ioos:station:USF.COMPS:FHP:1,2013-05-02T00:54:00Z,28.1530,-82.8010,0.053,1111122 
COMPS,ioos:station:USF.COMPS:FHP:1,2013-05-02T01:00:00Z,28.1530,-82.8010,0.034,1111122 
COMPS,ioos:station:USF.COMPS:FHP:1,2013-05-02T01:06:00Z,28.1530,-82.8010,0.014,1111122 
COMPS,ioos:station:USF.COMPS:FHP:1,2013-05-02T01:18:00Z,28.1530,-82.8010,0.017,1111122 
COMPS,ioos:station:USF.COMPS:FHP:1,2013-05-02T01:24:00Z,28.1530,-82.8010,0.019,1111122 
COMPS,ioos:station:USF.COMPS:FHP:1,2013-05-02T01:30:00Z,28.1530,-82.8010,0.0,1114422 
COMPS,ioos:station:USF.COMPS:FHP:1,2013-05-02T01:36:00Z,28.1530,-82.8010,-0.02,1111122 
COMPS,ioos:station:USF.COMPS:FHP:1,2013-05-02T01:42:00Z,28.1530,-82.8010,-0.034,1111122 
COMPS,ioos:station:USF.COMPS:FHP:1,2013-05-02T01:48:00Z,28.1530,-82.8010,-0.05,1111122 
COMPS,ioos:station:USF.COMPS:FHP:1,2013-05-02T01:54:00Z,28.1530,-82.8010,-0.061,1111122 
COMPS,ioos:station:USF.COMPS:FHP:1,2013-05-02T02:00:00Z,28.1530,-82.8010,-0.068,1111122 
COMPS,ioos:station:USF.COMPS:FHP:1,2013-05-02T02:06:00Z,28.1530,-82.8010,-0.08,1111122 
COMPS,ioos:station:USF.COMPS:FHP:1,2013-05-02T02:12:00Z,28.1530,-82.8010,-0.093,1111122 
COMPS,ioos:station:USF.COMPS:FHP:1,2013-05-02T02:18:00Z,28.1530,-82.8010,-0.11,1111122 
COMPS,ioos:station:USF.COMPS:FHP:1,2013-05-02T02:24:00Z,28.1530,-82.8010,-0.127,1111122 
COMPS,ioos:station:USF.COMPS:FHP:1,2013-05-02T02:30:00Z,28.1530,-82.8010,-0.137,1111122 
COMPS,ioos:station:USF.COMPS:FHP:1,2013-05-02T02:36:00Z,28.1530,-82.8010,-0.152,1111122 
COMPS,ioos:station:USF.COMPS:FHP:1,2013-05-02T02:42:00Z,28.1530,-82.8010,-0.162,1111122 
COMPS,ioos:station:USF.COMPS:FHP:1,2013-05-02T02:48:00Z,28.1530,-82.8010,-0.181,1111122 
COMPS,ioos:station:USF.COMPS:FHP:1,2013-05-02T02:54:00Z,28.1530,-82.8010,-0.203,1111122 
COMPS,ioos:station:USF.COMPS:FHP:1,2013-05-02T03:00:00Z,28.1530,-82.8010,-0.211,1111122 
COMPS,ioos:station:USF.COMPS:FHP:1,2013-05-02T03:06:00Z,28.1530,-82.8010,-0.224,1111122 
COMPS,ioos:station:USF.COMPS:FHP:1,2013-05-02T03:12:00Z,28.1530,-82.8010,-0.24,1111122 
COMPS,ioos:station:USF.COMPS:FHP:1,2013-05-02T03:18:00Z,28.1530,-82.8010,-0.258,1111122 
COMPS,ioos:station:USF.COMPS:FHP:1,2013-05-02T03:30:00Z,28.1530,-82.8010,-0.277,1111122 
COMPS,ioos:station:USF.COMPS:FHP:1,2013-05-02T03:36:00Z,28.1530,-82.8010,-0.289,1111122 
COMPS,ioos:station:USF.COMPS:FHP:1,2013-05-02T03:42:00Z,28.1530,-82.8010,-0.288,1111122 
COMPS,ioos:station:USF.COMPS:FHP:1,2013-05-02T03:48:00Z,28.1530,-82.8010,-0.298,1111122 
COMPS,ioos:station:USF.COMPS:FHP:1,2013-05-02T03:54:00Z,28.1530,-82.8010,-0.301,1111122 
COMPS,ioos:station:USF.COMPS:FHP:1,2013-05-02T04:00:00Z,28.1530,-82.8010,-0.307,1111122 
COMPS,ioos:station:USF.COMPS:FHP:1,2013-05-02T04:06:00Z,28.1530,-82.8010,-0.312,1111122 
COMPS,ioos:station:USF.COMPS:FHP:1,2013-05-02T04:12:00Z,28.1530,-82.8010,-0.316,1111122 
COMPS,ioos:station:USF.COMPS:FHP:1,2013-05-02T04:18:00Z,28.1530,-82.8010,-0.315,1111122 
COMPS,ioos:station:USF.COMPS:FHP:1,2013-05-02T04:24:00Z,28.1530,-82.8010,-0.32,1111122 
COMPS,ioos:station:USF.COMPS:FHP:1,2013-05-02T04:30:00Z,28.1530,-82.8010,-0.333,1111122 
COMPS,ioos:station:USF.COMPS:FHP:1,2013-05-02T04:36:00Z,28.1530,-82.8010,-0.332,1111122 
COMPS,ioos:station:USF.COMPS:FHP:1,2013-05-02T04:42:00Z,28.1530,-82.8010,-0.325,1111122 
COMPS,ioos:station:USF.COMPS:FHP:1,2013-05-02T04:48:00Z,28.1530,-82.8010,-0.318,1111122 
COMPS,ioos:station:USF.COMPS:FHP:1,2013-05-02T04:54:00Z,28.1530,-82.8010,-0.324,1111122 
COMPS,ioos:station:USF.COMPS:FHP:1,2013-05-02T05:00:00Z,28.1530,-82.8010,-0.325,1111122 
COMPS,ioos:station:USF.COMPS:FHP:1,2013-05-02T05:06:00Z,28.1530,-82.8010,-0.315,1111122 
COMPS,ioos:station:USF.COMPS:FHP:1,2013-05-02T05:12:00Z,28.1530,-82.8010,-0.315,1111122 
COMPS,ioos:station:USF.COMPS:FHP:1,2013-05-02T05:18:00Z,28.1530,-82.8010,-0.302,1111122 
COMPS,ioos:station:USF.COMPS:FHP:1,2013-05-02T05:24:00Z,28.1530,-82.8010,-0.298,1111122 
COMPS,ioos:station:USF.COMPS:FHP:1,2013-05-02T05:30:00Z,28.1530,-82.8010,-0.294,1111122 
COMPS,ioos:station:USF.COMPS:FHP:1,2013-05-02T05:42:00Z,28.1530,-82.8010,-0.274,1111122 
COMPS,ioos:station:USF.COMPS:FHP:1,2013-05-02T05:48:00Z,28.1530,-82.8010,-0.271,1111122 
COMPS,ioos:station:USF.COMPS:FHP:1,2013-05-02T05:54:00Z,28.1530,-82.8010,-0.266,1111122 
COMPS,ioos:station:USF.COMPS:FHP:1,2013-05-02T06:06:00Z,28.1530,-82.8010,-0.25,1111122 
COMPS,ioos:station:USF.COMPS:FHP:1,2013-05-02T06:12:00Z,28.1530,-82.8010,-0.229,1111122 
COMPS,ioos:station:USF.COMPS:FHP:1,2013-05-02T06:24:00Z,28.1530,-82.8010,-0.216,1111122 
COMPS,ioos:station:USF.COMPS:FHP:1,2013-05-02T06:30:00Z,28.1530,-82.8010,-0.2,1111122 
COMPS,ioos:station:USF.COMPS:FHP:1,2013-05-02T06:36:00Z,28.1530,-82.8010,-0.199,1111122 
COMPS,ioos:station:USF.COMPS:FHP:1,2013-05-02T06:42:00Z,28.1530,-82.8010,-0.183,1111122 
COMPS,ioos:station:USF.COMPS:FHP:1,2013-05-02T06:48:00Z,28.1530,-82.8010,-0.179,1111122 
COMPS,ioos:station:USF.COMPS:FHP:1,2013-05-02T06:54:00Z,28.1530,-82.8010,-0.167,1111122 
COMPS,ioos:station:USF.COMPS:FHP:1,2013-05-02T07:06:00Z,28.1530,-82.8010,-0.144,1111122 
COMPS,ioos:station:USF.COMPS:FHP:1,2013-05-02T07:12:00Z,28.1530,-82.8010,-0.125,1111122 
COMPS,ioos:station:USF.COMPS:FHP:1,2013-05-02T07:18:00Z,28.1530,-82.8010,-0.116,1111122 
COMPS,ioos:station:USF.COMPS:FHP:1,2013-05-02T07:24:00Z,28.1530,-82.8010,-0.103,1111122 
COMPS,ioos:station:USF.COMPS:FHP:1,2013-05-02T07:36:00Z,28.1530,-82.8010,-0.075,1111122 
COMPS,ioos:station:USF.COMPS:FHP:1,2013-05-02T07:42:00Z,28.1530,-82.8010,-0.066,1111122 
COMPS,ioos:station:USF.COMPS:FHP:1,2013-05-02T07:48:00Z,28.1530,-82.8010,-0.05,1111122 
COMPS,ioos:station:USF.COMPS:FHP:1,2013-05-02T07:54:00Z,28.1530,-82.8010,-0.03,1111122 
COMPS,ioos:station:USF.COMPS:FHP:1,2013-05-02T08:06:00Z,28.1530,-82.8010,-0.006,1111122 
COMPS,ioos:station:USF.COMPS:FHP:1,2013-05-02T08:12:00Z,28.1530,-82.8010,0.002,1111122 
COMPS,ioos:station:USF.COMPS:FHP:1,2013-05-02T08:18:00Z,28.1530,-82.8010,0.017,1111122 
COMPS,ioos:station:USF.COMPS:FHP:1,2013-05-02T08:24:00Z,28.1530,-82.8010,0.026,1111122 
COMPS,ioos:station:USF.COMPS:FHP:1,2013-05-02T08:30:00Z,28.1530,-82.8010,0.041,1111122 
COMPS,ioos:station:USF.COMPS:FHP:1,2013-05-02T08:42:00Z,28.1530,-82.8010,0.071,1111122 
COMPS,ioos:station:USF.COMPS:FHP:1,2013-05-02T08:54:00Z,28.1530,-82.8010,0.102,1111122 
COMPS,ioos:station:USF.COMPS:FHP:1,2013-05-02T09:00:00Z,28.1530,-82.8010,0.113,1111122 
COMPS,ioos:station:USF.COMPS:FHP:1,2013-05-02T09:06:00Z,28.1530,-82.8010,0.13,1111122 
COMPS,ioos:station:USF.COMPS:FHP:1,2013-05-02T09:12:00Z,28.1530,-82.8010,0.135,1111122 
COMPS,ioos:station:USF.COMPS:FHP:1,2013-05-02T09:18:00Z,28.1530,-82.8010,0.143,1111122 
COMPS,ioos:station:USF.COMPS:FHP:1,2013-05-02T09:24:00Z,28.1530,-82.8010,0.14,1111122 
COMPS,ioos:station:USF.COMPS:FHP:1,2013-05-02T09:30:00Z,28.1530,-82.8010,0.136,1111122 
COMPS,ioos:station:USF.COMPS:FHP:1,2013-05-02T09:36:00Z,28.1530,-82.8010,0.143,1111122 
COMPS,ioos:station:USF.COMPS:FHP:1,2013-05-02T09:42:00Z,28.1530,-82.8010,0.156,1111122 
COMPS,ioos:station:USF.COMPS:FHP:1,2013-05-02T09:48:00Z,28.1530,-82.8010,0.177,1111122 
COMPS,ioos:station:USF.COMPS:FHP:1,2013-05-02T09:54:00Z,28.1530,-82.8010,0.194,1111122 
COMPS,ioos:station:USF.COMPS:FHP:1,2013-05-02T10:00:00Z,28.1530,-82.8010,0.2,1111122 
COMPS,ioos:station:USF.COMPS:FHP:1,2013-05-02T10:06:00Z,28.1530,-82.8010,0.213,1111122 
COMPS,ioos:station:USF.COMPS:FHP:1,2013-05-02T10:12:00Z,28.1530,-82.8010,0.209,1111122 
COMPS,ioos:station:USF.COMPS:FHP:1,2013-05-02T10:18:00Z,28.1530,-82.8010,0.214,1111122 
COMPS,ioos:station:USF.COMPS:FHP:1,2013-05-02T10:36:00Z,28.1530,-82.8010,0.234,1111122 
COMPS,ioos:station:USF.COMPS:FHP:1,2013-05-02T10:48:00Z,28.1530,-82.8010,0.228,1111122 
COMPS,ioos:station:USF.COMPS:FHP:1,2013-05-02T10:54:00Z,28.1530,-82.8010,0.226,1111122 
COMPS,ioos:station:USF.COMPS:FHP:1,2013-05-02T11:00:00Z,28.1530,-82.8010,0.226,1111122 
COMPS,ioos:station:USF.COMPS:FHP:1,2013-05-02T11:06:00Z,28.1530,-82.8010,0.234,1111122 
COMPS,ioos:station:USF.COMPS:FHP:1,2013-05-02T11:12:00Z,28.1530,-82.8010,0.228,1111122 
COMPS,ioos:station:USF.COMPS:FHP:1,2013-05-02T11:18:00Z,28.1530,-82.8010,0.227,1111122 
COMPS,ioos:station:USF.COMPS:FHP:1,2013-05-02T11:24:00Z,28.1530,-82.8010,0.214,1111122 
COMPS,ioos:station:USF.COMPS:FHP:1,2013-05-02T11:30:00Z,28.1530,-82.8010,0.205,1111122 
COMPS,ioos:station:USF.COMPS:FHP:1,2013-05-02T11:36:00Z,28.1530,-82.8010,0.204,1111122 
COMPS,ioos:station:USF.COMPS:FHP:1,2013-05-02T11:48:00Z,28.1530,-82.8010,0.2,1111122 
COMPS,ioos:station:USF.COMPS:FHP:1,2013-05-02T11:54:00Z,28.1530,-82.8010,0.21,1111122 
COMPS,ioos:station:USF.COMPS:FHP:1,2013-05-02T12:00:00Z,28.1530,-82.8010,0.214,1111122 
COMPS,ioos:station:USF.COMPS:FHP:1,2013-05-02T12:06:00Z,28.1530,-82.8010,0.208,1111122 
COMPS,ioos:station:USF.COMPS:FHP:1,2013-05-02T12:12:00Z,28.1530,-82.8010,0.207,1111122 
COMPS,ioos:station:USF.COMPS:FHP:1,2013-05-02T12:18:00Z,28.1530,-82.8010,0.2,1111122 
COMPS,ioos:station:USF.COMPS:FHP:1,2013-05-02T12:24:00Z,28.1530,-82.8010,0.211,1111122 
COMPS,ioos:station:USF.COMPS:FHP:1,2013-05-02T12:30:00Z,28.1530,-82.8010,0.207,1111122 
COMPS,ioos:station:USF.COMPS:FHP:1,2013-05-02T12:36:00Z,28.1530,-82.8010,0.207,1111122 
COMPS,ioos:station:USF.COMPS:FHP:1,2013-05-02T12:48:00Z,28.1530,-82.8010,0.207,1111122 
COMPS,ioos:station:USF.COMPS:FHP:1,2013-05-02T12:54:00Z,28.1530,-82.8010,0.198,1111122 
COMPS,ioos:station:USF.COMPS:FHP:1,2013-05-02T13:00:00Z,28.1530,-82.8010,0.2,1111122 
COMPS,ioos:station:USF.COMPS:FHP:1,2013-05-02T13:06:00Z,28.1530,-82.8010,0.188,1111122 
COMPS,ioos:station:USF.COMPS:FHP:1,2013-05-02T13:12:00Z,28.1530,-82.8010,0.185,1111122 
COMPS,ioos:station:USF.COMPS:FHP:1,2013-05-02T13:18:00Z,28.1530,-82.8010,0.185,1111122 
COMPS,ioos:station:USF.COMPS:FHP:1,2013-05-02T13:24:00Z,28.1530,-82.8010,0.169,1111122 
COMPS,ioos:station:USF.COMPS:FHP:1,2013-05-02T13:30:00Z,28.1530,-82.8010,0.154,1111122 
COMPS,ioos:station:USF.COMPS:FHP:1,2013-05-02T13:36:00Z,28.1530,-82.8010,0.133,1111122 
COMPS,ioos:station:USF.COMPS:FHP:1,2013-05-02T13:42:00Z,28.1530,-82.8010,0.11,1111122 
COMPS,ioos:station:USF.COMPS:FHP:1,2013-05-02T13:48:00Z,28.1530,-82.8010,0.084,1111122 
COMPS,ioos:station:USF.COMPS:FHP:1,2013-05-02T13:54:00Z,28.1530,-82.8010,0.088,1111122 
COMPS,ioos:station:USF.COMPS:FHP:1,2013-05-02T14:00:00Z,28.1530,-82.8010,0.071,1111122 
COMPS,ioos:station:USF.COMPS:FHP:1,2013-05-02T14:06:00Z,28.1530,-82.8010,0.069,1111122 
COMPS,ioos:station:USF.COMPS:FHP:1,2013-05-02T14:12:00Z,28.1530,-82.8010,0.053,1111122 
COMPS,ioos:station:USF.COMPS:FHP:1,2013-05-02T14:18:00Z,28.1530,-82.8010,0.035,1111122 
COMPS,ioos:station:USF.COMPS:FHP:1,2013-05-02T14:24:00Z,28.1530,-82.8010,0.021,1111122 
COMPS,ioos:station:USF.COMPS:FHP:1,2013-05-02T14:30:00Z,28.1530,-82.8010,0.005,1111122 
COMPS,ioos:station:USF.COMPS:FHP:1,2013-05-02T14:36:00Z,28.1530,-82.8010,0.001,1111122 
COMPS,ioos:station:USF.COMPS:FHP:1,2013-05-02T14:42:00Z,28.1530,-82.8010,0.003,1111122 
COMPS,ioos:station:USF.COMPS:FHP:1,2013-05-02T14:48:00Z,28.1530,-82.8010,0.003,1111122 
COMPS,ioos:station:USF.COMPS:FHP:1,2013-05-02T14:54:00Z,28.1530,-82.8010,-0.001,1111122 
COMPS,ioos:station:USF.COMPS:FHP:1,2013-05-02T15:00:00Z,28.1530,-82.8010,0.009,1111122 
COMPS,ioos:station:USF.COMPS:FHP:1,2013-05-02T15:06:00Z,28.1530,-82.8010,0.03,1111122 
COMPS,ioos:station:USF.COMPS:FHP:1,2013-05-02T15:12:00Z,28.1530,-82.8010,0.046,1111122 
COMPS,ioos:station:USF.COMPS:FHP:1,2013-05-02T15:18:00Z,28.1530,-82.8010,0.064,1111122 
COMPS,ioos:station:USF.COMPS:FHP:1,2013-05-02T15:24:00Z,28.1530,-82.8010,0.084,1111122 
COMPS,ioos:station:USF.COMPS:FHP:1,2013-05-02T15:30:00Z,28.1530,-82.8010,0.089,1111122 
COMPS,ioos:station:USF.COMPS:FHP:1,2013-05-02T15:36:00Z,28.1530,-82.8010,0.095,1111122 
COMPS,ioos:station:USF.COMPS:FHP:1,2013-05-02T15:42:00Z,28.1530,-82.8010,0.101,1111122 
COMPS,ioos:station:USF.COMPS:FHP:1,2013-05-02T15:48:00Z,28.1530,-82.8010,0.104,1111122 
COMPS,ioos:station:USF.COMPS:FHP:1,2013-05-02T15:54:00Z,28.1530,-82.8010,0.099,1111122 
COMPS,ioos:station:USF.COMPS:FHP:1,2013-05-02T16:00:00Z,28.1530,-82.8010,0.096,1111122 
COMPS,ioos:station:USF.COMPS:FHP:1,2013-05-02T16:06:00Z,28.1530,-82.8010,0.094,1111122 
COMPS,ioos:station:USF.COMPS:FHP:1,2013-05-02T16:12:00Z,28.1530,-82.8010,0.093,1111122 
COMPS,ioos:station:USF.COMPS:FHP:1,2013-05-02T16:18:00Z,28.1530,-82.8010,0.093,1111122 
COMPS,ioos:station:USF.COMPS:FHP:1,2013-05-02T16:24:00Z,28.1530,-82.8010,0.094,1111122 
COMPS,ioos:station:USF.COMPS:FHP:1,2013-05-02T16:30:00Z,28.1530,-82.8010,0.092,1111122 
COMPS,ioos:station:USF.COMPS:FHP:1,2013-05-02T16:36:00Z,28.1530,-82.8010,0.092,1111122 
COMPS,ioos:station:USF.COMPS:FHP:1,2013-05-02T16:42:00Z,28.1530,-82.8010,0.085,1111122 
COMPS,ioos:station:USF.COMPS:FHP:1,2013-05-02T16:48:00Z,28.1530,-82.8010,0.088,1111122 
COMPS,ioos:station:USF.COMPS:FHP:1,2013-05-02T16:54:00Z,28.1530,-82.8010,0.092,1111122 
COMPS,ioos:station:USF.COMPS:FHP:1,2013-05-02T17:00:00Z,28.1530,-82.8010,0.075,1111122 
COMPS,ioos:station:USF.COMPS:FHP:1,2013-05-02T17:06:00Z,28.1530,-82.8010,0.078,1111122 
COMPS,ioos:station:USF.COMPS:FHP:1,2013-05-02T17:12:00Z,28.1530,-82.8010,0.065,1111122 
COMPS,ioos:station:USF.COMPS:FHP:1,2013-05-02T17:18:00Z,28.1530,-82.8010,0.061,1111122 
COMPS,ioos:station:USF.COMPS:FHP:1,2013-05-02T17:24:00Z,28.1530,-82.8010,0.065,1111122 
COMPS,ioos:station:USF.COMPS:FHP:1,2013-05-02T17:30:00Z,28.1530,-82.8010,0.058,1111122 
COMPS,ioos:station:USF.COMPS:FHP:1,2013-05-02T17:36:00Z,28.1530,-82.8010,0.058,1111122 
COMPS,ioos:station:USF.COMPS:FHP:1,2013-05-02T17:42:00Z,28.1530,-82.8010,0.072,1111122 
COMPS,ioos:station:USF.COMPS:FHP:1,2013-05-02T17:48:00Z,28.1530,-82.8010,0.071,1111122 
COMPS,ioos:station:USF.COMPS:FHP:1,2013-05-02T17:54:00Z,28.1530,-82.8010,0.079,1111122 
COMPS,ioos:station:USF.COMPS:FHP:1,2013-05-02T18:00:00Z,28.1530,-82.8010,0.085,1111122 
COMPS,ioos:station:USF.COMPS:FHP:1,2013-05-02T18:06:00Z,28.1530,-82.8010,0.085,1111122 
COMPS,ioos:station:USF.COMPS:FHP:1,2013-05-02T18:12:00Z,28.1530,-82.8010,0.075,1111122 
COMPS,ioos:station:USF.COMPS:FHP:1,2013-05-02T18:18:00Z,28.1530,-82.8010,0.081,1111122 
COMPS,ioos:station:USF.COMPS:FHP:1,2013-05-02T18:24:00Z,28.1530,-82.8010,0.092,1111122 
COMPS,ioos:station:USF.COMPS:FHP:1,2013-05-02T18:30:00Z,28.1530,-82.8010,0.1,1111122 
COMPS,ioos:station:USF.COMPS:FHP:1,2013-05-02T18:36:00Z,28.1530,-82.8010,0.12,1111122 
COMPS,ioos:station:USF.COMPS:FHP:1,2013-05-02T18:42:00Z,28.1530,-82.8010,0.133,1111122 
COMPS,ioos:station:USF.COMPS:FHP:1,2013-05-02T18:48:00Z,28.1530,-82.8010,0.154,1111122 
COMPS,ioos:station:USF.COMPS:FHP:1,2013-05-02T18:54:00Z,28.1530,-82.8010,0.174,1111122 
COMPS,ioos:station:USF.COMPS:FHP:1,2013-05-02T19:00:00Z,28.1530,-82.8010,0.189,1111122 
COMPS,ioos:station:USF.COMPS:FHP:1,2013-05-02T19:06:00Z,28.1530,-82.8010,0.203,1111122 
COMPS,ioos:station:USF.COMPS:FHP:1,2013-05-02T19:12:00Z,28.1530,-82.8010,0.222,1111122 
COMPS,ioos:station:USF.COMPS:FHP:1,2013-05-02T19:18:00Z,28.1530,-82.8010,0.236,1111122 
COMPS,ioos:station:USF.COMPS:FHP:1,2013-05-02T19:24:00Z,28.1530,-82.8010,0.247,1111122 
COMPS,ioos:station:USF.COMPS:FHP:1,2013-05-02T19:30:00Z,28.1530,-82.8010,0.248,1111122 
COMPS,ioos:station:USF.COMPS:FHP:1,2013-05-02T19:36:00Z,28.1530,-82.8010,0.254,1111122 
COMPS,ioos:station:USF.COMPS:FHP:1,2013-05-02T19:42:00Z,28.1530,-82.8010,0.258,1111122 
COMPS,ioos:station:USF.COMPS:FHP:1,2013-05-02T19:48:00Z,28.1530,-82.8010,0.269,1111122 
COMPS,ioos:station:USF.COMPS:FHP:1,2013-05-02T19:54:00Z,28.1530,-82.8010,0.282,1111122 